Tracking 20942 objects as of 14-Jul-2020
HD Live streaming from Space Station
objects crossing your sky now

COSMOS 823

Track COSMOS 823 now!
10-day predictions
COSMOS 823 is classified as:


NORAD ID: 8873
Int'l Code: 1976-051A
Perigee: 977.3 km
Apogee: 1,012.3 km
Inclination: 83.0 °
Period: 104.9 minutes
Semi major axis: 7365 km
RCS: 1.7893 m2 (large)
Launch date: June 2, 1976
Source: Commonwealth of Independent States (former USSR) (CIS)
Launch site: PLESETSK MISSILE AND SPACE COMPLEX (PKMTR)
aabbcc
Your satellite tracking list
Your tracking list is empty




NASA's NSSDC Master Catalog

Two Line Element Set (TLE):
1  8873U 76051A   20196.22519483  .00000011  00000-0 -47063-5 0  9995
2  8873  82.9672 289.6532 0023765 117.8148 309.2065 13.73315491210397
Source of the keplerian elements: AFSPC